Regional Weather Roundup
Issued by NWS

Home | Current Version | Previous Version | Graphics & Text | Print | Product List | Glossary On
Versions: 1 2 3 4 5 6 7 8 9 10 11 12 13 14 15 16 17 18 19 20 21 22 23 24 25 26 27 28 29 30 31 32 33 34 35 36 37 38 39 40 41 42 43 44 45 46 47 48 49 50
000
ASUS43 KIND 250409
RWRIN

WEATHER ROUNDUP FOR INDIANA
NATIONAL WEATHER SERVICE INDIANAPOLIS IN
1100 PM EST SAT FEB 24 2018

NOTE: "FAIR" INDICATES FEW OR NO CLOUDS BELOW 12,000 FEET WITH NO
SIGNIFICANT WEATHER AND/OR OBSTRUCTIONS TO VISIBILITY.

* - STATION DOES NOT REPORT WEATHER SUCH AS PRECIPITATION OR FOG.

+ - STATION NOT QUALITY CONTROLLED BY THE NATIONAL WEATHER SERVICE.
    USE DATA WITH CAUTION...ESPECIALLY DEWPOINT AND RELATIVE
    HUMIDITY OBSERVATIONS.

INZ001>003-010>013-019-020-250500-
NORTHWEST INDIANA

CITY           SKY/WX    TMP DP  RH WIND       PRES   REMARKS
GARY /AIRPORT/ CLOUDY    48  45  87 SE17G30   29.54F
LA PORTE +     CLOUDY    43  41  95 SE15      29.59F
MICHIGAN CITY+ CLOUDY    43  41  93 SE9G20    29.57F
MONTICELLO +   CLOUDY    50  48  95 SE12G18   29.56F
RENSSELAER +   CLOUDY    50  45  81 SE13      29.56F
VALPARAISO     CLOUDY    47  44  90 E14G24    29.57F

$$

LMZ046-743>745-250500-
SOUTHERN LAKE MICHIGAN

STATION/POSITION TIME  TEMP    WIND        PRES    WAVE
                       AIR SEA DIR/SP/G            HT
                 (UTC) (F)     (DEG/KT/KT) (MB)    (FT)
BURNS HARBOR     0337   46     130/ 14/ 27 1001.0F
MICHIGAN CITY    0340   43     110/ 19/ 25   N/A

$$

INZ004-005-014>016-021>024-250500-
NORTH CENTRAL INDIANA

CITY           SKY/WX    TMP DP  RH WIND       PRES   REMARKS
GOSHEN         CLOUDY    42  40  92 SE17      29.62F
LOGANSPORT +   CLOUDY    48  46  93 SE14G20   29.59F
PERU/GRISSOM   CLOUDY    50  50 100 SE16G23   29.57F
ROCHESTER +    CLOUDY    46  46 100 SE15G21   29.60F
SOUTH BEND     CLOUDY    40  38  93 SE17      29.61F WCI  31
WARSAW +       CLOUDY    41  41 100 SE16      29.61F

$$

INZ006>009-017-018-025>027-250500-
NORTHEAST INDIANA

CITY           SKY/WX    TMP DP  RH WIND       PRES   REMARKS
AUBURN +       CLOUDY    37  37 100 E14       29.68F FOG     WCI  29
FORT WAYNE     CLOUDY    43  42  97 E13       29.66F
HUNTINGTON +   CLOUDY    45  43  95 SE13G20   29.63F
KENDALLVILLE + CLOUDY    37  37 100 E15G22    29.66F FOG     WCI  28

$$

INZ028-029-035-036-043>045-051>053-250500-
WEST CENTRAL INDIANA

CITY           SKY/WX    TMP DP  RH WIND       PRES   REMARKS
CRAWFORDSVL +  CLOUDY    50  50 100 SE10        N/A
GREENCASTLE +  CLOUDY    52  52 100 S12       29.60R
LAFAYETTE      CLOUDY    52  51  97 SE14G22   29.57F
TERRE HAUTE    CLOUDY    56  55  97 S16G25    29.58S

$$

INZ030>032-037>040-046>048-054>057-064-065-250500-
CENTRAL INDIANA

CITY           SKY/WX    TMP DP  RH WIND       PRES   REMARKS
FISHERS *+     CLOUDY    52  52 100 SE16      29.61F
FRANKFORT +    CLOUDY    54  52  94 S17G29    29.59F
GREENWOOD *+   CLOUDY    51 -40   2 SE18G24   29.65F
INDIANAPOLIS   CLOUDY    53  52  96 SE23G32   29.54F
-EAGLE CREEK   LGT RAIN  54  52  93 SE15G22   29.58F
KOKOMO +       CLOUDY    50  49  96 SE21G26   29.60F
MARION +       CLOUDY    48  48 100 SE26G33   29.59F
MT COMFORT *+  CLOUDY    52  52 100 SE17      29.65F
SHELBYVILLE    RAIN      54  51  90 SE21      29.69F
ZIONSVILLE +   CLOUDY    51  51 100 SE21G28   29.59F

$$

INZ033-034-041-042-049-050-058-059-250500-
EAST CENTRAL INDIANA

CITY           SKY/WX    TMP DP  RH WIND       PRES   REMARKS
MUNCIE         MOCLDY    53  50  89 S13G18    29.68F
RICHMOND +     RAIN      46  46 100 E9        29.77F

$$

INZ060-061-067>069-081>083-085>088-250500-
SOUTHWEST INDIANA

CITY           SKY/WX    TMP DP  RH WIND       PRES   REMARKS
EVANSVILLE     FAIR      60  58  92 S14       29.69R
HUNTINGBURG +  MOCLDY    58  57  97 S9        29.71F
WASHINGTON +   CLOUDY    56  54  94 S13       29.65R

$$

INZ062-063-066-070>080-084-089>092-250500-
SOUTH CENTRAL AND SOUTHEAST INDIANA

CITY           SKY/WX    TMP DP  RH WIND       PRES   REMARKS
BATESVILLE +   CLOUDY    52  52 100 MISG      29.76F FOG
BLOOMINGTON    CLOUDY    54  54 100 S12       29.63F
FRENCH LICK *+ CLOUDY    54 N/A N/A CALM      29.69F
MADISON *+     CLOUDY    55  54  94 SW9       29.79R
NORTH VERNON + RAIN      52  50  93 SE3       29.75F
SEYMOUR +      RAIN      54  54 100 E5        29.75R

$$





USA.gov is the U.S. government's official web portal to all federal, state and local government web resources and services.